• MPC Preparation (Info)

  • MPEC 2016-N121: 2012 GU11

    The following Minor Planet Electronic Circular may be linked-to from your own Web pages, but must not otherwise be redistributed electronically.

    A form allowing access to any MPEC is at the bottom of this page.


    Read MPEC 2016-N120 Read MPEC 2016-N122


    M.P.E.C. 2016-N121                               Issued 2016 July 15, 03:22 UT
    
         The Minor Planet Electronic Circulars contain information on unusual
             minor planets and routine data on comets.  They are published
        on behalf of Division F of the International Astronomical Union by the
              Minor Planet Center, Smithsonian Astrophysical Observatory,
                              Cambridge, MA 02138, U.S.A.
    
                 Prepared using the Tamkin Foundation Computer Network
    
                                  MPC@CFA.HARVARD.EDU
                URL https://www.minorplanetcenter.net/    ISSN 1523-6714
    
                                       2012 GU11
    
    Additional Observations:
         K12G11U  C2011 04 02.30685 11 54 00.987+07 12 32.84         21.5 wLEN121F51
         K12G11U  C2011 04 02.32199 11 54 00.869+07 12 33.79         21.7 wLEN121F51
         K12G11U  C2011 04 02.33815 11 54 00.745+07 12 34.75         21.8 wLEN121F51
         K12G11U  C2011 04 02.35324 11 54 00.623+07 12 35.51         21.9 wLEN121F51
         K12G11U  C2011 06 19.27887 11 50 13.578+07 29 36.23         22.3 wLEN121F51
         K12G11U  C2011 06 19.28413 11 50 13.613+07 29 35.98         22.3 wLEN121F51
         K12G11U  C2011 06 19.28940 11 50 13.613+07 29 35.52         22.2 wLEN121F51
         K12G11U  C2011 06 19.29465 11 50 13.615+07 29 35.75         22.0 wLEN121F51
         K12G11U  C2013 03 19.48690 12 40 53.611+03 58 19.55         22.0 wLEN121F51
         K12G11U  C2013 03 19.50223 12 40 53.492+03 58 20.45         21.9 wLEN121F51
         K12G11U  C2013 03 19.51767 12 40 53.366+03 58 21.37         21.9 wLEN121F51
         K12G11U  C2013 03 19.53309 12 40 53.241+03 58 22.56         22.0 wLEN121F51
         K12G11U  C2014 03 24.44620 13 00 49.861+02 36 44.28         21.9 wLEN121F51
         K12G11U  C2014 03 24.45972 13 00 49.764+02 36 44.87         22.0 wLEN121F51
         K12G11U  C2014 03 24.47323 13 00 49.650+02 36 45.77         22.3 wLEN121F51
         K12G11U  C2014 03 24.48683 13 00 49.563+02 36 46.38         22.1 wLEN121F51
         K12G11U  C2014 04 04.35226 12 59 26.022+02 47 13.35         21.8 wLEN121F51
         K12G11U  C2014 04 04.36614 12 59 25.916+02 47 14.32         22.0 wLEN121F51
         K12G11U  C2014 04 04.38008 12 59 25.788+02 47 15.08         21.9 wLEN121F51
         K12G11U  C2014 04 04.39401 12 59 25.677+02 47 15.69         22.1 wLEN121F51
         K12G11U  C2014 04 23.30323 12 57 01.769+03 02 58.74         22.1 wLEN121F51
         K12G11U  C2014 04 23.31534 12 57 01.673+03 02 59.41         21.9 wLEN121F51
         K12G11U  C2014 04 23.33967 12 57 01.475+03 03 00.40         22.3 wLEN121F51
         K12G11U  C2014 04 29.26021 12 56 19.840+03 06 59.56         22.1 wLEN121F51
         K12G11U  C2014 04 29.27211 12 56 19.755+03 07 00.12         22.2 wLEN121F51
         K12G11U  C2014 04 29.28399 12 56 19.682+03 07 00.48         22.2 wLEN121F51
         K12G11U  C2014 04 29.29588 12 56 19.594+03 07 00.74         21.9 wLEN121F51
         K12G11U  C2014 05 27.29189 12 53 50.198+03 17 46.62         22.0 wLEN121F51
         K12G11U  C2014 05 27.30438 12 53 50.145+03 17 46.74         22.2 wLEN121F51
         K12G11U  C2014 05 27.31686 12 53 50.109+03 17 46.89         22.1 wLEN121F51
         K12G11U  C2014 05 27.32935 12 53 50.057+03 17 46.90         22.0 wLEN121F51
         K12G11U  C2015 03 25.45023 13 19 56.626+01 15 26.65         22.2 wLEN121F51
         K12G11U  C2015 03 25.46512 13 19 56.514+01 15 27.29         22.2 wLEN121F51
         K12G11U  C2015 03 25.48013 13 19 56.398+01 15 28.27         22.3 wLEN121F51
         K12G11U  C2015 04 16.34608 13 17 11.825+01 35 02.18         22.0 wLEN121F51
         K12G11U  C2015 04 16.37507 13 17 11.609+01 35 03.32         21.8 wLEN121F51
         K12G11U  C2015 04 16.38957 13 17 11.486+01 35 04.08         22.0 wLEN121F51
         K12G11U  C2015 05 20.38955 13 13 25.063+01 54 51.87         22.4 wLEN121F51
         K12G11U  C2015 05 20.40112 13 13 25.003+01 54 51.75         22.4 wLEN121F51
         K12G11U  C2015 05 20.42429 13 13 24.871+01 54 52.61         22.3 wLEN121F51
         K12G11U  C2015 06 08.26608 13 12 11.079+01 57 27.45         22.3 wLEN121F51
         K12G11U  C2015 06 08.27782 13 12 11.037+01 57 27.60         22.5 wLEN121F51
         K12G11U  C2015 06 08.28954 13 12 11.001+01 57 27.27         22.4 wLEN121F51
         K12G11U  C2015 06 08.30129 13 12 10.980+01 57 27.34         22.5 wLEN121F51
    
    Observer details:
    F51 Pan-STARRS 1, Haleakala.  Observers B. Gibson, T. Goggia, N. Primak,
        A. Schultz, M. Willman.  Measurers K. Chambers, S. Chastel, Y.-T. Chen,
        L. Denneau, H. Flewelling, M. Holman, M. Huber, R. Jedicke, M. Lackner,
        E. Lilly, H.-W. Lin, E. Magnier, M. Micheli, M. Payne, P. Veres,
        R. Wainscoat, C. Waters, R. Weryk.  1.8-m Ritchey-Chretien + CCD.
    
    Orbital elements:
    2012 GU11
    Epoch 2016 July 31.0 TT = JDT 2457600.5                 MPC
    M   1.35301              (2000.0)            P               Q
    n   0.00038996     Peri.    6.51984     -0.87582284     -0.47048352
    a 185.5466718      Node   144.75942     +0.43395721     -0.86524807
    e   0.9017574      Incl.   10.74820     +0.21122381     -0.17317922
    P  2530            H    8.8           G   0.15           U   0
    Residuals in seconds of arc
    110402 F51  0.1-  0.1-    130319 F51  0.0   0.2+    140527 F51  0.1-  0.1-
    110402 F51  0.1-  0.1+    140324 F51  0.2-  0.1+    140527 F51  0.0   0.0
    110402 F51  0.0   0.1+    140324 F51  0.0   0.1-    140527 F51  0.1-  0.1-
    110402 F51  0.0   0.0     140324 F51  0.2-  0.0     150325 F51  0.2+  0.1+
    110619 F51  0.1+  0.1-    140324 F51  0.1+  0.2-    150325 F51  0.2+  0.1-
    110619 F51  0.3+  0.1-    140404 F51  0.0   0.1-    150325 F51  0.1+  0.1+
    110619 F51  0.1+  0.4-    140404 F51  0.1+  0.1+    150416 F51  0.0   0.1+
    110619 F51  0.2-  0.0     140404 F51  0.2-  0.0     150416 F51  0.1+  0.1-
    120412 F51  0.2+  0.1+    140404 F51  0.2-  0.1-    150416 F51  0.0   0.1-
    120412 F51  0.1-  0.4+    140423 F51  0.2+  0.1-    150520 F51  0.0   0.1+
    120412 F51  0.0   0.3+    140423 F51  0.1+  0.0     150520 F51  0.0   0.2-
    120416 291  0.0   0.4-    140423 F51  0.2-  0.0     150520 F51  0.1-  0.2+
    120416 291  0.2-  0.1+    140429 F51  0.1+  0.1-    150608 F51  0.0   0.1+
    120416 291  0.2-  0.4+    140429 F51  0.1+  0.0     150608 F51  0.1-  0.3+
    130319 F51  0.1+  0.1+    140429 F51  0.2+  0.1-    150608 F51  0.2-  0.0
    130319 F51  0.1+  0.0     140429 F51  0.1+  0.3-    150608 F51  0.0   0.1+
    130319 F51  0.0   0.0     140527 F51  0.0   0.1-
    
    Ephemeris:
    2012 GU11                a,e,i = 185.55, 0.90, 11                q = 18.229
    Date    TT    R. A. (2000) Decl.     Delta      r     Elong.  Phase     V
    2016 06 15    13 29 32.6 +00 40 56  21.8256 22.2890   116.0     2.3    22.5
    ...
    2016 06 30    13 29 16.5 +00 37 13  22.0895 22.3202   101.8     2.6    22.5
    ...
    2016 07 08    13 29 22.5 +00 33 40  22.2367 22.3368    94.3     2.6    22.6
    ...
    2016 07 14    13 29 33.7 +00 30 19  22.3481 22.3493    88.8     2.6    22.6
    2016 07 15    13 29 36.2 +00 29 42  22.3667 22.3514    87.8     2.6    22.6
    2016 07 16    13 29 38.8 +00 29 05  22.3852 22.3535    86.9     2.6    22.6
    ...
    2016 07 22    13 29 57.6 +00 25 00  22.4961 22.3660    81.4     2.6    22.6
    ...
    2016 07 30    13 30 31.5 +00 18 48  22.6415 22.3827    74.0     2.5    22.6
    ...
    2016 08 14    13 32 00.6 +00 05 06  22.8996 22.4141    60.2     2.2    22.6
    
    A. U. Tomatic                (C) Copyright 2016 MPC           M.P.E.C. 2016-N121
    

    Read MPEC 2016-N120 Read MPEC 2016-N122


    MPEC number:

    Enter an MPEC number in one of the following forms:

    • 1997-B01 (the full form)
    • J97B01 (the packed version of the full form)
    • B01 (the abbreviated form)